Tracking 35331 objects as of 17-Sep-2026
HD Live streaming from Space Station
objects crossing your sky now

COSMOS 1275 DEB

Track COSMOS 1275 DEB now!
10-day predictions


NORAD ID: 42145
Int'l Code: 1981-053RH
Launch date: June 4, 1981
Source: Commonwealth of Independent States (former USSR) (CIS)
Launch site: PLESETSK MISSILE AND SPACE COMPLEX (PKMTR)

Note: This is SATELLITE DEBRIS
Your satellite tracking list
Your tracking list is empty




NASA's NSSDC Master Catalog

Two Line Element Set (TLE):
1 42145U 81053RH  26249.13252149  .00320557  00000-0  53072-2 0  9994
2 42145  83.3415  34.8512 0005914 310.5669  49.5069 15.51024476676540
Source of the keplerian elements: AFSPC